Weather in Osinovka

Russia / Tomsk District     55°57′17″N   83°29′40″E
temp.,
°C
wind,
m/s
gust,
m/s
humid.,
%
clouds,
%
prec.,
mm/h
press.,
hPa
HPBL,
m
18 january, mon
mon1801:00−10ssw61493100 0.1 1012407
04:00−10ssw71688100 0.0 1010522
07:00−8sw81591100 0.1 1007887
10:00−8sw51292100 0.6 1006620
13:00−8wsw6118999 0.6 1006916
16:00−9wsw51190100 0.1 1006864
19:00−12wsw51291100 0.2 1009628
22:00−16wsw51193100 0.1 1012410
19 january, tue
tue1901:00−18wsw51095100 0.1 1015302
04:00−22wsw489796 0.0 1016158
07:00−24sw499656 0.0 1018184
10:00−25sw410964 0.0 1018221
13:00−21wsw599340 0.0 1019369
16:00−20wsw499399 0.0 1019526
19:00−24w499699 0.1 1021231
22:00−27w369783 0.0 1023116
20 january, wed
wed2001:00−29w349642 0.0 102643
04:00−31w23950 0.0 102822
07:00−32w22940 0.0 103019
10:00−33wsw12940 0.0 103219
13:00−28ssw12900 0.0 1033137
16:00−27se12934 0.0 103375
19:00−30ese229413 0.0 103319
22:00−30ese239262 0.0 103235
21 january, thu
thu2101:00−28ese359081 0.0 1029131
04:00−25e3688100 0.0 1026212
07:00−23ese4791100 0.0 1023247
10:00−21ese3698100 0.2 1020238
13:00−17sse2595100 0.3 1017255
16:00−15ssw3795100 0.1 1015357
19:00−16ssw4996100 0.1 1013286
22:00−14ssw4895100 0.0 1011330
22 january, fri
fri2201:00−15sw3795100 0.3 1009212
04:00−19sw499738 0.0 1007205
07:00−19wsw6129245 0.0 1008506
10:00−23sw4119584 0.0 1011287
13:00−21wsw5109279 0.0 1013473
16:00−20sw5119197 0.0 1014548
19:00−23sw5119498 0.0 1016360
22:00−25sw499586 0.0 1017229